This is the latest recevied weather packets stored in our database for station/object SQ5LTL-2. If no packets are shown the sender has not sent any weather packets the latest 10 day(s).
| Time | Temp. | Humidity | Pressure | Rain* | Wind** | Luminosity | Snow |
|---|---|---|---|---|---|---|---|
| 1777274116 | 9.44° C | 31% | 1023 hPa | 0 mm | - | 389 W/m² | - |
| 1777273835 | 9.44° C | 32% | 1023.2 hPa | 0 mm | - | 378 W/m² | - |
| 1777273534 | 9.44° C | 33% | 1023.1 hPa | 0 mm | - | 366 W/m² | - |
| 1777273231 | 9.44° C | 33% | 1023.2 hPa | 0 mm | - | 354 W/m² | - |
| 1777272929 | 8.89° C | 33% | 1023.4 hPa | 0 mm | - | 343 W/m² | - |
| 1777272629 | 8.89° C | 33% | 1023.3 hPa | 0 mm | - | 330 W/m² | - |
| 1777272025 | 8.33° C | 33% | 1023.4 hPa | 0 mm | - | 305 W/m² | - |
| 1777271725 | 8.33° C | 33% | 1023.3 hPa | 0 mm | - | 294 W/m² | - |
| 1777271422 | 8.33° C | 32% | 1023.5 hPa | 0 mm | - | 286 W/m² | - |
| 1777271121 | 8.33° C | 33% | 1023.5 hPa | 0 mm | - | 278 W/m² | - |
| 1777270820 | 7.78° C | 33% | 1023.6 hPa | 0 mm | - | 264 W/m² | - |
| 1777270519 | 7.78° C | 33% | 1023.4 hPa | 0 mm | - | 246 W/m² | - |
| 1777270217 | 7.22° C | 34% | 1023.5 hPa | 0 mm | - | 234 W/m² | - |
| 1777269935 | 7.22° C | 34% | 1023.6 hPa | 0 mm | - | 222 W/m² | - |
| 1777269633 | 6.67° C | 35% | 1023.6 hPa | 0 mm | - | 211 W/m² | - |
| 1777269332 | 6.67° C | 35% | 1023.6 hPa | 0 mm | - | 199 W/m² | - |
| 1777269031 | 6.67° C | 36% | 1023.7 hPa | 0 mm | - | 189 W/m² | - |
| 1777268731 | 6.11° C | 37% | 1023.6 hPa | 0 mm | - | 188 W/m² | - |
| 1777268428 | 6.11° C | 38% | 1023.7 hPa | 0 mm | - | 206 W/m² | - |
| 1777268126 | 5° C | 41% | 1023.8 hPa | 0 mm | - | 222 W/m² | - |
| 1777267825 | 4.44° C | 43% | 1023.9 hPa | 0 mm | - | 161 W/m² | - |
| 1777267525 | 4.44° C | 45% | 1023.9 hPa | 0 mm | - | 126 W/m² | - |
| 1777267222 | 3.89° C | 45% | 1023.9 hPa | 0 mm | - | 124 W/m² | - |
| 1777266922 | 3.33° C | 47% | 1023.9 hPa | 0 mm | - | 121 W/m² | - |
| 1777266620 | 3.33° C | 48% | 1023.9 hPa | 0 mm | - | 97 W/m² | - |
* Rain latest hour (hover to see other rain measurements)
** Current wind speed in m/s (hover to see current wind gust speed)